Location: Pontbriand
(46.1542°N, 71.2542°W)
Time: 16:24:36
(UTC+00:00)

Envisat - Pass Details

Date: 02 October 2022
Orbit: 763 x 765 km, 98.2° (Epoch: 30 November)

Event Time Altitude Azimuth Distance (km) Brightness Sun altitude
Rises 09:35:15 0° 10° (N) 3,245 6.5 -12.8°
Reaches altitude 10° 09:37:36 10° 7° (N) 2,314 5.7 -12.4°
Maximum altitude 09:42:36 59° 289° (WNW) 883 3.0 -11.6°
Drops below altitude 10° 09:47:34 10° 210° (SSW) 2,297 5.1 -10.7°
Sets 09:49:53 0° 207° (SSW) 3,218 5.9 -10.3°
